Wind_Speed
19 18 16 16 16 16 16 16 15 15 14 14 12 10 10 10 10 9 10 10 9 9 9 9 9 9 9 8 8 8 9 9 9 8 8 8 7 7 8 8 7 7 8 7 8 8 9 8 8 9 9 9 8 7 7 8 8 8 8 9 8 8 9 10 11 13 13 12 12 12 12 12 11 11 12 12 12 14 16 16 16 16 15 15 15
18 17 16 17 16 16 15 15 16 16 15 14 13 12 12 11 11 11 10 10 10 10 10 10 10 9 9 9 10 10 10 10 9 8 8 7 7 7 7 7 6 7 7 8 8 9 9 9 8 8 8 8 8 7 7 7 8 8 8 8 9 8 9 11 12 13 13 13 13 13 12 12 12 12 13 13 13 15 15 15 14 14 13 14 14
18 16 16 16 15 15 16 16 16 17 16 15 13 13 13 12 12 12 10 10 10 11 10 10 11 10 10 11 11 11 11 10 9 9 8 7 7 7 7 7 7 7 7 7 7 7 8 8 7 7 6 7 7 6 7 7 7 8 9 9 10 10 10 12 13 13 14 15 15 14 13 13 13 13 12 12 13 14 14 14 13 13 13 13 14
20 17 15 15 14 15 16 16 16 16 16 16 15 14 13 12 12 12 11 10 10 11 11 11 11 11 10 11 11 10 10 10 9 9 8 8 7 7 7 7 7 7 7 8 7 7 8 7 7 7 7 8 8 7 7 7 7 7 8 8 9 9 10 11 13 14 15 17 16 15 14 14 13 12 11 12 12 13 14 14 14 14 13 13 13
21 18 16 15 14 15 15 15 15 16 17 16 15 15 15 13 13 13 12 12 11 11 12 12 12 12 10 10 10 10 10 10 9 9 8 8 7 7 7 7 7 8 8 8 8 8 8 8 7 7 7 7 7 6 6 7 7 7 7 7 8 9 10 11 12 14 15 16 16 16 15 14 12 11 11 11 12 13 13 14 13 14 14 13 13
23 20 18 17 16 15 15 15 15 15 16 16 15 15 15 15 14 13 14 13 12 12 12 12 12 12 11 11 11 11 11 10 10 10 9 9 9 8 8 8 8 7 7 7 8 7 7 8 8 7 8 7 7 7 7 8 7 7 8 9 8 9 11 11 12 13 14 15 15 15 14 12 12 12 12 12 13 14 14 15 14 14 14 15 15
25 23 20 19 18 17 16 16 15 15 15 15 15 14 15 15 15 14 14 14 14 13 12 12 12 12 12 11 11 11 12 12 12 12 11 10 10 10 9 9 8 8 7 7 7 7 8 8 8 8 7 7 7 7 7 7 7 8 9 9 10 10 10 10 11 12 13 13 14 13 13 12 12 13 12 13 14 14 15 16 16 16 17 20 20
26 25 23 22 21 20 18 16 15 15 15 15 15 15 14 14 15 15 14 14 15 14 13 13 13 12 12 12 12 12 12 13 13 13 12 11 11 10 10 9 9 8 8 7 7 8 8 8 8 8 8 8 8 7 7 7 8 8 8 9 10 11 11 11 12 12 13 13 13 13 14 13 13 13 12 12 13 15 15 16 17 18 19 21 22
26 26 25 24 23 21 19 18 17 16 16 16 16 16 16 15 15 15 15 14 14 14 14 13 12 12 12 13 13 13 12 12 13 14 13 12 11 10 10 10 9 9 9 8 8 8 8 9 9 9 10 11 9 9 9 10 10 10 10 11 11 11 12 12 12 13 13 13 13 14 14 14 13 13 12 13 14 16 17 17 18 19 20 21 22
24 25 25 24 22 21 20 19 19 18 17 17 17 18 17 16 15 15 16 15 14 14 15 14 13 12 12 13 14 13 12 13 15 16 15 13 13 12 11 12 12 11 10 9 9 9 9 10 9 11 13 12 11 11 11 11 12 12 12 13 13 13 13 13 13 13 13 14 14 14 15 15 14 14 15 15 16 16 16 17 19 22 23 24 24
24 25 25 23 22 22 22 20 20 19 18 18 18 18 18 17 17 16 16 16 15 16 17 16 15 13 11 12 13 12 13 16 18 18 17 16 16 16 15 14 14 13 12 11 10 10 10 10 10 11 12 11 10 12 12 12 13 14 14 15 15 15 16 16 16 15 15 15 15 15 16 16 16 16 17 17 16 17 17 18 21 24 25 25 26
26 26 26 25 24 24 24 21 19 19 20 19 18 18 18 17 18 18 16 15 15 16 16 16 17 15 13 12 11 11 16 21 21 19 17 18 18 17 16 14 13 13 12 11 11 10 10 10 10 10 11 11 12 13 14 14 13 14 15 16 17 17 17 18 18 18 18 18 18 18 17 18 18 18 18 18 19 20 22 23 24 25 25 25 27
26 26 27 28 28 29 28 25 22 22 22 20 17 17 18 17 17 18 16 14 14 15 15 17 18 16 14 13 12 15 20 22 20 18 18 18 18 18 16 14 13 13 13 12 12 12 11 11 11 10 10 12 13 13 14 15 15 15 16 17 18 18 18 18 18 18 19 19 20 21 20 19 20 20 20 21 23 24 25 26 26 27 27 29 30
22 23 24 25 27 28 29 28 26 25 26 23 19 18 19 17 18 20 19 17 15 15 14 15 16 14 14 15 15 18 20 19 18 18 18 17 18 18 17 15 13 13 14 14 13 13 13 12 12 12 11 13 15 14 14 14 15 16 17 18 18 18 19 19 18 18 19 20 21 22 21 21 22 23 23 23 25 26 28 29 30 30 31 32 34
23 23 22 21 23 24 23 24 24 24 26 25 23 23 22 19 18 19 19 19 19 18 16 15 15 14 14 14 16 19 20 18 17 17 16 16 17 17 17 16 14 13 15 16 16 15 15 14 14 14 14 16 18 17 16 17 17 18 19 19 20 20 21 21 20 19 20 21 22 22 21 21 23 24 25 25 27 28 30 32 33 34 35 35 35
25 23 22 21 22 21 19 19 19 19 20 23 25 24 22 20 19 18 17 17 18 19 18 17 17 16 15 15 16 19 19 17 17 17 16 17 17 17 18 17 16 15 16 18 18 17 16 16 15 13 14 17 19 19 19 20 19 19 20 21 22 22 22 21 22 22 22 22 24 24 23 23 24 26 27 27 29 31 32 34 34 34 33 32 31
21 21 21 21 21 20 19 18 16 15 16 19 21 20 17 18 20 20 20 18 18 18 17 17 16 15 16 17 19 20 19 18 18 18 18 19 18 17 18 18 17 17 17 18 17 15 16 18 16 13 14 18 19 19 19 19 20 20 21 21 22 23 22 20 21 23 24 25 26 26 26 27 27 28 29 30 31 32 32 33 32 30 28 27 26
15 15 15 15 16 16 16 16 15 15 16 17 17 16 15 16 18 18 19 19 19 19 18 17 16 14 14 16 18 18 17 17 19 19 19 20 18 17 17 17 16 15 14 13 12 11 14 16 15 15 16 19 19 19 18 19 19 19 20 20 20 21 19 18 17 18 20 23 25 26 28 29 30 32 32 31 30 29 29 30 29 25 24 24 25
15 14 13 13 14 12 12 12 12 12 13 13 12 12 12 14 15 16 16 16 16 17 17 17 17 15 13 13 14 14 13 14 16 16 17 17 16 15 14 13 11 11 11 11 10 11 12 14 15 16 18 18 19 19 18 19 19 19 19 20 20 20 20 20 20 20 19 21 25 27 28 29 30 31 30 28 26 25 26 27 25 22 22 24 24
17 16 16 15 15 14 14 13 12 11 11 11 12 12 12 13 13 13 12 12 13 14 14 14 14 13 12 12 12 11 11 11 10 10 11 11 11 12 11 10 10 11 10 9 9 9 10 12 15 17 17 17 17 18 18 18 19 19 19 19 20 22 23 23 24 24 25 26 26 26 26 25 25 24 23 22 20 20 22 23 22 20 20 22 23
19 19 19 18 17 17 18 17 17 16 15 15 15 14 13 13 13 12 11 11 11 12 11 11 11 11 10 10 9 8 8 7 7 7 7 8 8 8 9 9 10 9 7 4 4 5 6 9 13 16 16 16 17 17 18 18 18 19 19 20 21 22 23 24 24 25 26 25 23 22 22 21 20 19 18 18 18 17 17 19 20 19 19 21 24
15 15 16 17 16 16 17 17 16 15 14 15 15 14 13 13 12 12 12 12 11 11 10 9 9 9 8 7 6 6 5 5 5 4 4 4 5 6 6 7 8 7 4 2 2 3 3 6 11 13 13 14 15 16 17 17 17 18 18 19 19 19 20 21 21 21 20 18 17 18 19 19 19 18 16 18 19 18 16 18 21 22 21 21 23
13 13 16 17 16 16 17 16 15 14 14 13 13 13 12 12 12 12 12 11 11 11 9 8 8 7 7 6 5 4 4 3 2 2 2 2 2 3 4 4 5 5 3 3 4 4 5 7 10 10 10 11 12 13 14 16 16 16 17 16 17 17 17 16 15 14 14 13 13 14 15 15 16 16 14 16 18 18 18 19 21 22 22 22 23
14 15 17 17 16 17 17 16 14 13 12 11 11 11 11 11 11 11 10 10 10 10 8 8 7 6 6 5 4 3 2 2 2 1 1 1 1 1 2 2 2 3 4 5 6 6 7 8 8 8 8 9 10 12 13 14 14 15 16 16 16 17 17 16 15 15 15 14 14 14 14 14 14 14 15 16 18 19 20 20 20 20 21 22 23
17 18 17 16 16 15 15 13 12 11 11 10 9 9 10 9 9 9 8 8 7 6 6 5 5 4 4 3 4 4 3 2 1 1 0 0 0 1 1 1 2 3 3 4 5 6 7 7 7 8 8 9 9 11 12 12 13 14 15 14 14 15 17 17 18 18 18 18 17 17 17 17 18 18 19 21 21 20 20 19 19 19 20 22 23
18 18 17 16 15 14 12 11 10 9 8 7 6 6 6 6 6 8 9 8 8 7 6 6 6 6 5 4 4 3 3 2 1 0 1 2 2 2 2 2 3 3 4 4 5 6 7 7 8 8 8 9 9 10 11 11 12 13 14 13 13 15 17 18 18 19 20 19 19 20 20 20 20 21 22 23 21 19 19 19 19 19 19 20 22
17 16 15 14 14 13 12 11 10 9 8 7 7 6 5 5 7 9 9 9 9 8 7 7 8 8 8 7 5 3 2 1 0 2 3 3 4 5 5 5 5 5 5 6 6 7 8 8 9 9 10 10 11 11 12 12 12 13 13 14 15 16 17 17 18 19 19 20 20 20 21 20 20 20 21 21 20 19 20 21 21 20 20 21 23
14 14 14 13 13 13 12 11 11 11 11 10 10 9 8 8 8 9 9 9 9 9 8 8 8 8 7 7 5 4 2 1 3 5 5 5 6 7 7 8 8 8 8 8 9 9 10 10 10 10 10 10 10 11 12 13 13 13 13 13 15 16 16 16 16 17 17 18 18 19 19 20 20 20 20 20 21 21 21 21 21 21 21 22 24
12 12 12 11 11 12 11 11 10 10 10 10 9 10 10 9 9 8 8 9 9 9 9 9 8 8 7 6 5 4 2 3 5 6 6 6 7 8 8 9 9 9 10 10 10 10 10 10 11 10 10 9 9 10 11 12 12 13 13 13 13 15 15 16 16 16 16 16 17 17 18 18 19 20 20 21 22 22 22 22 21 22 23 24 26
11 11 10 9 10 10 11 10 10 9 9 8 8 9 9 9 9 8 8 8 7 7 7 7 6 6 6 5 4 4 3 5 6 7 7 7 8 8 9 9 9 9 10 10 9 9 10 10 10 10 10 10 10 10 10 11 11 11 12 12 13 14 15 16 16 16 16 17 17 17 18 18 18 19 21 23 23 22 22 22 22 22 23 24 26
10 10 10 11 12 11 11 10 10 9 8 7 7 7 8 8 8 7 7 7 6 6 6 5 4 4 4 4 4 5 5 6 7 7 7 7 8 8 9 9 9 9 8 8 8 9 9 10 10 11 11 11 11 12 11 11 11 11 11 11 12 13 14 15 15 16 16 17 17 18 19 19 20 21 23 24 24 24 23 23 23 23 24 24 25
9 9 10 13 14 12 11 10 10 8 7 6 5 5 6 6 6 6 5 5 4 4 4 4 4 4 4 4 5 5 6 6 7 8 8 8 8 8 9 9 9 9 8 7 7 7 8 9 9 10 11 10 11 12 12 12 12 13 12 12 13 13 14 14 14 14 15 15 16 17 18 20 20 22 24 24 25 25 24 24 25 26 26 27 27
10 10 10 10 11 10 10 10 10 9 8 7 6 5 4 4 4 4 4 4 4 4 5 5 5 4 5 5 6 7 7 8 8 8 8 9 8 8 9 10 10 10 8 7 6 5 5 6 7 9 9 10 10 11 11 11 12 12 13 13 14 15 16 16 16 16 16 16 16 17 18 19 20 21 22 23 24 24 24 24 25 26 27 29 29
10 11 11 11 11 11 9 9 9 8 7 6 6 6 5 5 4 3 3 2 2 4 5 7 7 7 6 6 7 7 7 8 8 8 9 9 8 9 9 9 10 10 9 8 6 5 4 5 6 7 8 8 9 9 10 11 11 12 13 14 14 16 17 17 17 17 18 17 17 18 19 21 21 21 21 22 23 23 23 24 24 24 26 28 29
10 11 11 10 9 8 8 8 7 7 6 6 6 6 6 6 5 4 4 3 2 3 4 4 6 7 7 7 7 6 6 7 7 8 8 9 8 8 7 7 8 8 8 7 7 6 6 6 6 7 8 8 9 9 10 10 11 11 12 13 14 15 16 16 16 17 18 18 17 18 19 21 22 22 22 22 22 23 23 23 24 25 27 29 30
9 9 9 8 8 8 9 9 9 8 8 8 8 8 7 6 6 6 5 4 4 4 3 3 3 3 5 7 7 7 6 6 6 7 8 9 8 6 5 5 5 4 5 5 6 6 6 6 6 7 8 8 9 10 11 11 11 11 12 13 14 14 14 15 16 17 16 16 16 17 18 20 21 22 22 22 23 23 23 24 26 27 28 30 31
9 8 9 10 12 12 11 9 9 11 11 9 8 8 7 7 7 6 6 5 5 5 4 4 3 3 5 6 6 6 5 5 5 6 7 8 6 4 3 4 4 5 5 6 6 6 6 6 7 7 8 8 9 9 10 11 11 12 13 13 14 13 13 14 15 15 14 14 15 16 17 18 19 20 20 21 22 23 24 25 27 29 30 30 30
12 13 13 13 13 12 9 6 7 10 9 7 6 6 7 7 7 7 7 7 7 6 4 4 3 3 3 5 5 3 2 2 5 6 7 6 5 4 4 4 5 5 5 6 7 7 6 7 7 7 8 8 9 9 10 10 10 11 12 13 12 13 14 14 13 13 13 13 15 16 17 17 18 19 20 21 21 22 24 26 27 29 30 30 28
11 14 16 14 10 7 6 6 6 7 7 6 6 6 6 7 6 6 6 6 6 5 4 4 3 4 3 2 3 1 2 2 4 4 3 4 4 4 4 5 4 5 6 6 7 8 7 7 8 8 8 9 9 10 10 10 11 12 13 12 12 12 12 12 12 12 13 14 15 17 17 17 18 19 21 22 22 23 24 26 27 27 29 29 28
7 9 12 12 9 6 7 7 7 7 8 8 7 7 7 6 6 5 5 6 5 4 5 4 4 4 4 3 3 3 3 1 3 4 4 4 4 4 5 5 5 6 6 6 7 8 8 8 9 9 9 9 9 10 10 10 11 12 12 12 12 13 12 12 12 12 13 14 16 18 18 18 19 20 21 22 23 24 26 27 27 26 27 27 28
7 7 10 12 11 10 9 9 9 9 9 8 8 8 8 6 5 5 5 5 5 4 4 4 3 6 8 7 5 5 6 3 3 5 5 5 5 5 5 5 5 6 6 6 7 8 8 9 9 9 10 10 10 10 11 11 11 12 12 13 13 13 13 13 13 13 14 15 16 16 17 17 19 21 22 23 24 25 25 25 25 25 26 26 27
8 7 8 10 10 9 8 8 9 10 9 8 8 9 8 6 5 5 5 5 5 5 5 4 4 6 8 8 5 4 5 3 3 5 5 5 5 5 5 5 6 7 7 7 7 8 8 9 9 9 10 11 11 12 12 12 12 12 13 14 14 14 13 13 13 14 15 16 17 17 17 16 18 20 23 24 24 24 24 24 25 26 26 25 25
9 8 8 9 9 9 9 9 10 9 8 8 8 9 8 6 5 5 5 5 5 5 5 5 4 5 7 9 7 2 2 2 4 5 5 5 5 6 6 7 7 7 7 7 7 7 8 9 9 10 10 11 11 12 12 12 11 12 13 13 13 13 13 13 14 14 15 16 17 17 16 16 17 20 23 24 24 24 25 26 27 26 26 25 25
9 9 9 10 10 10 10 9 9 9 8 8 8 7 6 6 6 6 6 5 6 5 5 4 4 5 5 6 5 2 1 3 4 5 5 5 6 6 7 7 6 7 7 6 6 7 8 9 10 11 10 11 11 11 11 11 11 12 12 13 13 13 13 13 14 14 14 14 15 15 16 16 16 18 21 24 24 25 26 28 28 28 27 28 28
9 9 9 9 10 10 9 9 9 9 8 8 7 6 6 6 6 6 5 5 5 4 5 5 6 5 5 4 4 4 4 4 4 4 5 6 6 6 6 6 8 9 9 7 7 8 9 10 11 11 11 11 11 11 11 11 11 11 12 13 13 12 13 14 16 17 16 16 16 17 18 18 17 18 20 22 24 26 28 28 28 28 29 29 29
9 9 9 9 9 9 9 9 9 9 8 8 7 6 6 6 7 7 7 6 6 5 5 5 5 4 3 4 5 4 4 4 4 5 5 5 5 5 6 7 10 11 10 8 8 9 10 11 11 11 11 11 11 11 12 12 11 11 12 12 12 13 16 19 21 22 22 22 22 22 21 20 20 20 20 20 22 26 29 29 29 29 29 28 28
10 10 10 10 10 10 10 10 9 9 9 8 8 7 7 7 7 7 6 6 6 5 4 4 3 3 4 5 4 4 4 4 4 5 5 5 5 6 8 11 13 12 10 9 10 10 11 11 11 11 11 11 11 12 13 12 11 11 11 11 14 18 22 23 24 25 26 27 27 26 25 24 23 20 20 21 25 29 30 29 29 28 27 27 27
11 10 10 11 10 10 10 10 9 9 9 8 8 8 7 6 5 5 4 3 3 3 3 3 3 4 5 4 4 3 4 4 5 5 5 5 5 7 10 13 13 11 9 9 10 10 10 10 10 10 10 11 11 12 12 12 11 11 9 11 17 22 24 24 26 27 27 27 27 25 24 23 21 19 21 25 28 29 29 28 27 26 26 26 25
11 10 11 11 10 10 9 9 8 8 8 7 7 7 6 6 5 5 5 4 3 3 3 4 4 4 4 3 3 4 4 4 5 5 5 5 6 6 8 10 10 9 8 9 9 9 9 9 9 9 10 10 10 11 11 11 11 10 10 14 20 23 23 23 24 24 24 24 24 24 23 22 20 19 22 26 27 26 26 26 25 24 25 25 25
11 11 11 11 10 10 10 9 9 8 7 7 6 6 6 5 5 4 4 4 4 3 4 4 3 3 3 3 4 4 4 4 5 5 5 6 6 6 7 8 8 8 8 9 8 8 9 9 9 9 9 9 9 9 9 9 8 9 12 16 19 20 19 19 20 20 20 21 22 22 22 22 21 20 19 20 21 22 22 22 23 24 24 25 25
12 11 11 11 10 9 9 9 8 7 7 7 6 5 5 5 4 4 4 3 3 3 3 3 2 2 3 3 3 4 4 4 5 5 6 6 6 7 7 8 8 8 8 9 9 9 8 8 8 9 9 9 9 9 8 8 9 12 14 16 17 17 17 17 17 17 18 19 20 21 21 21 21 19 18 18 19 20 20 20 21 22 23 24 24
Wind_Direction
211 213 209 209 212 213 211 209 208 207 210 213 210 208 209 203 201 205 207 208 208 210 209 206 209 207 204 208 207 213 220 215 217 224 221 224 223 215 224 234 233 236 241 243 247 254 259 260 260 260 263 265 265 268 272 276 277 277 278 283 287 290 291 293 293 296 302 307 308 308 309 310 309 307 306 306 305 303 305 309 313 316 315 311 312
213 216 214 214 214 213 212 212 212 209 208 213 213 210 211 206 203 204 207 210 207 206 207 208 212 210 205 211 210 211 219 217 215 222 224 223 222 221 230 237 233 233 239 242 246 253 258 260 261 263 266 268 267 266 269 269 270 272 273 275 280 283 286 290 292 295 302 308 311 313 314 312 309 307 308 307 308 308 310 315 316 316 312 309 314
214 218 216 218 218 215 214 212 214 212 208 211 212 211 212 210 210 208 206 211 213 209 207 208 218 219 211 216 218 215 219 218 214 220 224 225 224 222 228 237 240 237 237 241 243 248 255 258 259 259 257 260 265 264 265 267 268 269 270 270 275 280 283 286 291 296 299 304 311 314 312 310 309 311 313 313 314 314 315 317 314 313 312 310 315
217 218 216 219 218 215 215 213 212 212 210 211 212 210 210 210 215 214 208 210 215 215 211 210 222 229 223 224 225 221 222 218 214 220 228 232 233 229 230 236 241 242 239 241 242 241 247 251 249 248 247 253 263 265 263 265 268 272 277 279 280 282 284 286 291 296 299 302 307 310 310 312 313 315 316 314 314 315 315 316 315 313 311 310 314
224 220 215 217 215 213 214 212 212 211 209 211 214 214 213 211 214 216 213 212 212 216 217 213 221 230 226 227 229 224 223 221 217 220 225 232 233 232 239 242 242 246 245 244 246 244 245 247 244 245 248 253 259 259 257 261 266 271 275 276 279 281 282 286 291 295 298 300 304 307 310 312 310 310 313 313 313 314 313 314 315 314 313 314 313
227 223 218 217 214 212 210 207 209 211 210 210 213 215 217 216 217 218 216 215 212 213 217 216 221 227 223 222 225 226 225 224 225 223 221 226 229 227 234 240 241 246 248 249 251 251 248 249 249 248 248 251 252 250 254 261 265 266 267 270 275 278 282 290 294 295 296 298 301 305 306 305 303 306 310 310 311 311 310 312 314 314 316 317 315
227 224 221 220 219 216 212 207 207 208 210 212 212 214 218 219 221 221 220 218 216 215 216 217 219 225 224 220 221 226 228 227 227 225 218 221 228 227 227 233 236 239 243 245 246 248 248 248 250 251 251 254 255 256 262 266 265 265 270 276 278 278 282 287 289 290 292 293 295 297 297 296 299 302 304 307 311 312 312 314 314 314 317 317 317
227 226 224 223 223 223 221 217 214 210 210 212 212 212 215 217 219 222 222 221 221 220 221 222 222 224 227 226 224 228 232 231 227 225 220 219 225 229 228 229 233 236 240 241 241 242 243 243 245 247 248 250 249 250 255 258 259 263 267 269 273 277 281 282 283 286 287 288 289 289 292 295 298 302 304 308 312 312 313 313 312 313 316 315 314
228 228 226 223 223 226 229 229 226 219 216 218 218 216 216 218 220 221 222 222 224 225 224 225 226 226 227 229 229 229 232 233 231 227 223 221 224 229 233 233 232 235 239 240 240 240 241 242 243 240 242 247 249 248 250 254 257 260 263 265 268 272 276 278 282 285 286 287 287 289 293 295 297 301 304 305 308 309 311 311 309 311 313 312 311
227 228 227 224 222 223 228 233 234 230 224 222 222 221 219 220 222 225 229 227 226 227 226 224 226 228 231 234 235 234 232 234 236 232 225 224 225 226 231 233 231 231 235 238 240 242 244 245 245 248 250 251 253 253 253 255 259 261 262 263 263 264 267 270 274 280 284 285 287 290 292 293 295 298 301 303 305 306 307 307 306 308 310 310 310
227 229 228 225 223 224 227 231 233 233 229 225 224 223 221 221 222 225 231 233 232 235 235 233 231 230 233 237 239 239 235 235 238 236 229 229 231 230 234 238 238 237 239 241 243 244 247 247 249 258 263 259 255 259 258 255 257 260 261 261 261 262 263 264 265 268 271 276 280 285 287 289 293 296 299 302 303 302 302 302 304 306 308 307 307
227 230 230 229 228 229 229 227 227 228 227 227 229 228 225 225 224 223 225 231 236 239 241 241 239 233 230 235 235 235 235 236 239 240 236 234 234 234 237 242 244 243 243 244 246 246 248 249 249 254 261 259 259 267 271 269 267 267 267 267 267 267 267 268 269 270 271 273 276 278 282 286 290 294 297 300 300 300 300 302 303 304 303 303 303
226 227 230 231 231 233 234 233 234 233 232 230 231 232 232 231 229 224 220 222 229 234 237 241 242 236 231 233 231 231 238 242 244 243 241 238 237 237 238 241 244 245 244 245 249 251 253 256 257 256 259 262 266 272 276 278 277 277 276 275 274 274 273 272 273 275 277 279 281 283 285 288 290 292 295 297 299 300 301 301 302 301 300 300 300
222 225 228 230 233 235 236 236 238 241 241 236 233 234 233 231 230 227 222 222 227 230 233 237 240 235 231 232 233 236 243 248 247 245 243 242 242 240 240 243 247 248 249 248 248 251 256 261 265 266 266 267 272 275 277 278 279 279 279 279 279 279 278 277 277 277 278 279 280 282 285 286 288 290 294 298 299 300 301 301 301 300 299 298 298
221 223 224 226 228 229 232 233 235 239 241 238 236 236 233 233 237 235 228 228 230 230 229 229 227 224 225 231 238 241 244 247 247 246 244 243 243 242 241 242 244 247 250 251 249 250 254 258 263 268 270 269 270 273 274 275 276 276 276 276 277 277 278 279 278 276 277 280 280 281 283 283 286 291 295 298 299 298 299 299 298 298 298 298 299
225 223 220 217 218 220 223 224 226 230 234 235 237 237 235 234 236 232 224 221 220 219 219 221 222 222 223 227 237 243 246 249 251 250 248 247 246 246 244 243 243 245 248 253 255 256 257 256 257 263 269 269 268 269 271 273 275 275 275 275 275 275 276 277 277 276 275 274 274 277 279 281 284 289 292 294 294 295 295 294 293 296 298 298 298
219 219 217 215 215 216 217 217 218 220 223 227 231 232 229 225 221 219 216 210 205 205 207 212 219 224 223 224 234 245 250 253 254 254 254 253 252 252 252 250 250 251 254 259 263 263 261 259 258 260 264 266 267 269 271 273 276 277 278 277 275 276 276 276 281 285 281 276 273 275 278 280 283 285 286 289 291 292 291 289 291 294 293 290 289
190 192 194 193 193 195 197 199 202 203 202 207 214 215 213 211 208 207 208 206 205 207 207 207 208 210 214 223 234 244 249 251 253 254 255 256 254 254 255 257 258 258 258 260 260 257 259 262 261 260 262 265 270 274 274 275 277 278 278 278 277 279 280 278 279 283 285 283 282 281 282 284 285 285 286 288 289 288 285 285 288 289 285 282 283
151 147 143 145 150 152 159 167 172 182 190 191 191 188 186 189 189 191 194 196 200 205 207 206 204 202 209 227 236 241 245 248 251 253 253 255 254 251 249 249 251 252 251 248 244 245 255 262 261 258 261 266 271 274 275 274 275 275 275 277 277 275 275 274 274 276 278 282 285 288 289 289 289 288 289 290 290 289 286 285 286 284 279 278 282
130 126 122 123 124 121 123 130 135 142 146 143 145 153 156 159 164 168 174 178 183 190 195 198 199 200 210 225 231 233 237 241 246 248 245 244 245 244 240 233 232 240 245 246 245 248 255 263 261 259 264 272 275 276 276 275 275 276 275 275 274 273 273 275 277 278 281 285 289 292 293 293 291 291 293 294 293 293 295 295 293 286 281 282 286
121 118 115 113 114 117 119 121 123 124 122 123 131 138 134 131 131 133 138 148 158 167 175 181 185 191 202 212 217 222 228 232 240 245 242 240 241 244 244 239 237 243 249 250 255 257 253 261 266 266 271 280 281 280 279 279 279 279 277 275 276 278 281 282 282 284 286 290 292 292 293 295 294 293 294 292 285 282 288 291 287 280 277 282 285
121 118 120 120 119 121 123 124 124 124 125 128 131 129 122 118 119 121 125 131 138 143 149 158 167 177 188 194 197 203 212 218 225 229 231 234 237 238 241 239 236 242 253 251 256 270 266 270 276 278 281 284 284 283 283 283 281 279 278 278 279 282 284 286 288 289 289 290 289 289 292 295 294 293 293 291 286 281 278 279 278 277 277 280 281
126 119 125 130 131 128 128 128 128 127 129 132 130 126 120 116 116 118 120 123 125 124 128 139 150 160 171 173 171 177 186 190 191 192 196 204 217 228 234 234 232 237 246 240 242 264 277 274 279 286 287 287 289 290 289 288 286 284 283 283 285 285 287 290 292 290 289 291 295 296 297 298 298 296 293 290 289 288 287 287 289 289 288 287 285
133 130 132 137 139 136 134 134 134 131 129 132 133 129 121 115 113 114 115 118 119 119 122 129 133 136 142 145 149 158 168 174 167 148 157 175 193 238 250 258 260 263 267 261 262 276 285 284 288 296 296 296 298 297 295 294 295 295 295 297 296 293 292 293 290 286 285 289 291 289 288 289 293 294 293 293 295 297 298 298 298 297 295 294 291
138 138 139 139 140 140 138 137 137 133 128 127 129 128 125 120 115 113 113 120 131 139 140 139 146 163 174 180 191 196 191 185 169 140 154 277 325 303 301 305 296 288 284 282 287 294 300 305 309 309 307 307 306 303 300 299 299 299 302 308 308 302 300 301 298 293 291 290 288 287 285 286 289 291 292 294 297 302 305 302 301 301 301 300 299
146 144 141 139 142 144 142 143 145 145 142 142 142 144 148 148 142 133 128 129 138 145 144 141 151 165 172 174 178 174 161 136 103 36 338 341 337 327 328 326 319 314 308 306 307 308 310 313 314 313 313 313 312 311 309 308 307 306 308 313 312 306 306 308 305 301 298 296 295 294 293 292 292 293 295 296 298 302 303 300 301 304 305 305 304
155 151 145 143 142 141 142 146 147 143 143 144 144 146 155 166 169 163 156 152 149 147 143 143 145 147 146 147 147 140 131 123 295 299 310 317 316 316 318 314 311 311 307 306 310 311 313 315 315 318 321 321 321 321 318 317 318 316 314 314 311 307 309 311 309 307 305 304 303 302 301 301 300 300 300 301 302 304 303 301 303 307 310 311 311
156 151 147 144 142 143 146 145 139 138 141 143 142 141 144 154 167 172 171 167 163 158 151 145 143 141 140 143 145 143 148 223 262 275 286 295 302 308 311 310 309 306 304 306 308 309 314 319 322 325 327 325 323 319 315 316 317 315 315 315 312 310 312 313 313 314 313 310 308 307 307 307 307 307 306 305 306 310 311 309 307 307 308 310 310
152 150 149 146 144 145 142 137 135 141 149 154 156 154 153 158 167 172 172 168 167 167 164 158 156 156 155 154 155 158 187 257 273 280 287 295 301 307 311 311 312 312 314 316 317 320 325 329 330 330 329 325 322 317 314 315 315 313 314 313 311 311 313 313 314 317 317 316 315 314 314 314 315 314 312 312 315 320 321 320 317 314 312 311 310
159 160 159 156 153 148 143 140 138 135 139 148 157 161 160 162 167 169 170 171 171 172 174 176 180 182 183 188 190 197 243 277 287 293 300 305 309 312 315 315 316 320 324 326 330 337 343 343 340 338 337 334 331 328 324 321 320 318 316 314 312 312 311 310 312 314 314 316 317 317 318 319 318 315 314 316 320 324 324 324 324 323 320 319 317
162 163 164 166 163 158 156 155 148 142 143 146 150 158 161 164 169 169 168 171 174 178 184 191 197 204 211 221 228 239 260 280 290 295 301 307 311 313 316 319 322 326 330 332 337 344 346 345 341 340 343 342 337 335 334 332 328 326 323 320 317 315 312 311 311 312 312 313 314 315 315 315 315 314 315 316 319 321 322 322 323 323 322 322 321
163 169 175 175 168 163 164 163 158 158 159 149 140 145 147 151 164 173 175 179 186 193 202 208 213 220 233 251 264 273 280 287 292 297 302 305 310 316 321 323 323 325 328 330 333 336 340 342 338 336 339 338 334 334 335 332 329 328 327 326 323 319 317 316 315 314 313 313 314 314 313 313 313 314 315 317 318 320 321 321 321 321 320 320 320
167 177 180 172 165 165 168 167 165 165 163 161 161 158 149 150 163 175 185 198 212 219 221 224 229 236 247 258 268 278 283 285 288 293 297 301 309 317 320 320 322 326 330 329 323 322 332 338 331 328 329 328 325 327 326 323 323 323 322 322 322 319 318 319 319 318 318 318 318 317 315 315 315 315 315 317 319 320 321 321 321 321 320 320 319
179 187 184 173 172 176 176 177 180 178 173 173 173 171 176 182 181 180 185 210 264 268 250 237 229 227 233 242 247 255 264 272 281 287 292 301 311 316 322 333 342 347 351 351 342 333 336 337 329 324 323 321 319 319 318 317 317 317 316 315 315 313 314 316 317 316 317 318 319 318 317 318 318 317 318 319 319 320 321 322 322 322 321 320 319
190 198 193 182 180 185 183 185 193 194 189 187 186 187 193 193 190 193 196 200 235 274 284 268 239 225 226 233 237 243 252 262 274 284 293 303 309 317 339 358 1 359 359 355 346 341 339 337 330 323 321 321 319 318 317 316 315 314 313 311 308 308 310 310 309 309 311 314 314 314 315 317 317 317 317 317 317 318 319 320 320 321 322 321 320
194 200 199 190 193 205 202 195 195 197 194 193 197 200 196 188 187 194 200 203 211 225 252 266 264 274 270 251 240 242 251 261 274 286 294 299 302 319 359 6 349 346 350 342 336 338 336 328 323 320 320 321 321 320 319 317 315 314 313 309 308 309 308 305 305 307 310 313 314 314 316 317 317 316 315 314 315 315 316 315 316 318 319 320 319
188 195 201 201 203 208 207 200 198 199 193 189 193 194 185 179 183 188 194 203 206 210 227 239 257 315 317 292 265 253 250 260 287 302 305 307 314 334 358 344 329 337 340 329 326 334 335 325 320 320 322 320 318 317 317 316 317 318 313 308 307 308 305 305 309 313 314 315 315 315 316 318 318 317 316 314 313 314 313 312 312 313 315 317 318
183 189 194 198 201 202 199 197 201 198 189 181 183 183 176 178 185 185 191 200 200 201 216 226 219 229 269 292 295 290 293 323 327 327 326 328 335 341 332 323 326 329 324 316 317 325 329 325 319 319 320 318 315 314 314 313 312 310 306 306 308 309 309 311 315 315 314 314 311 310 312 316 316 315 314 313 313 313 311 309 310 311 311 313 315
187 190 189 187 187 187 187 186 185 182 179 181 188 186 179 182 186 183 186 197 198 198 207 218 221 223 236 280 294 310 53 5 314 298 300 307 312 314 313 314 315 311 307 309 312 316 318 318 316 316 317 317 315 315 314 313 312 311 311 313 314 312 310 312 313 311 311 311 306 303 306 312 313 312 313 314 313 311 309 308 309 311 311 312 312
184 188 187 183 178 176 182 182 175 174 178 180 184 189 188 188 185 181 185 193 195 199 207 212 224 238 243 256 259 221 162 158 272 262 263 279 287 292 301 303 300 300 302 304 305 307 309 311 312 315 316 316 315 314 313 312 312 313 313 313 311 310 308 309 309 310 311 309 304 300 302 307 308 307 308 310 310 309 311 312 313 313 312 311 310
182 193 194 190 184 179 181 179 171 170 174 173 177 187 192 189 184 183 189 195 195 203 213 212 223 249 259 269 267 228 196 195 277 275 266 272 277 281 289 294 296 300 303 302 303 307 309 309 310 313 315 314 314 313 312 310 310 310 310 309 307 306 305 305 306 306 306 306 306 304 303 304 303 302 304 308 311 313 314 313 312 311 310 309 308
184 196 198 190 182 172 172 173 167 165 166 167 176 186 187 183 186 189 192 197 198 202 215 218 223 255 274 287 285 230 198 204 275 273 265 273 281 282 287 290 292 296 296 295 299 305 307 307 308 310 310 310 310 309 307 306 306 306 306 305 303 302 301 301 302 303 303 303 304 305 305 304 304 304 306 309 311 313 312 310 309 309 309 308 306
182 186 182 174 168 164 166 168 163 160 163 167 174 183 183 180 186 189 189 197 201 201 214 223 221 246 279 299 311 300 191 236 273 269 266 272 277 278 282 284 286 290 291 291 293 297 300 302 303 303 303 303 303 303 303 303 302 301 301 300 299 298 298 298 298 300 302 301 300 300 301 302 303 305 306 308 309 309 309 308 309 309 308 305 304
177 179 172 166 165 165 165 162 158 160 168 169 171 178 180 176 182 188 189 199 205 201 204 219 221 224 252 285 307 312 262 258 264 265 269 275 277 276 278 278 276 275 275 278 284 291 297 298 296 295 296 296 296 297 298 297 297 297 297 296 293 292 296 299 298 296 297 297 295 295 298 299 300 301 304 305 304 304 306 307 308 307 306 305 305
172 174 170 168 170 167 163 164 166 166 168 167 170 178 179 174 180 189 189 196 209 207 204 218 229 228 230 246 262 264 260 263 271 274 277 278 276 272 273 275 270 264 263 269 281 288 294 294 291 290 290 290 292 293 292 291 292 292 291 292 292 292 290 286 279 274 275 281 287 295 299 299 298 298 299 300 302 304 306 308 307 305 305 305 304
174 174 169 169 170 166 165 170 169 165 165 169 174 179 178 177 185 191 191 194 202 206 211 225 238 249 260 263 263 264 267 274 280 281 279 278 280 280 276 267 261 262 268 279 285 288 291 293 291 290 289 288 289 287 284 283 285 285 286 289 287 278 269 265 265 266 269 275 284 293 296 296 295 297 298 299 301 304 306 306 305 305 305 305 303
175 173 171 171 171 170 171 173 170 166 170 175 175 175 181 187 193 198 203 205 201 199 210 232 248 263 265 261 261 270 279 281 282 283 281 280 282 281 272 264 262 268 280 286 286 288 292 292 290 289 289 289 289 285 283 281 279 279 283 284 275 266 263 264 268 270 273 277 283 290 293 293 294 297 297 298 301 303 304 305 305 305 305 303 301
174 174 173 172 170 169 171 172 167 165 169 175 175 177 185 191 190 191 200 212 210 202 213 230 240 246 251 256 266 278 281 283 284 283 285 285 281 276 273 272 273 280 287 288 289 293 294 292 292 293 292 291 289 285 282 280 274 272 274 273 268 266 269 273 276 278 282 286 290 293 294 294 293 295 298 300 301 301 302 304 306 306 303 301 300
175 176 173 170 167 166 167 168 164 163 169 176 175 174 179 184 182 180 187 199 207 209 215 224 231 240 251 267 280 280 280 286 287 284 284 286 283 280 280 281 284 288 291 292 295 297 295 295 297 296 293 293 293 288 284 283 281 276 268 262 263 268 274 279 282 285 290 294 295 297 298 296 294 296 299 300 301 302 304 306 307 305 302 300 299
176 176 174 169 168 170 170 167 166 168 172 172 170 174 177 176 176 184 192 198 202 210 221 231 239 252 266 275 278 279 282 285 285 285 286 287 285 285 286 288 289 292 294 296 297 297 295 297 299 297 296 298 298 294 293 295 291 278 268 266 271 278 283 284 286 289 293 295 297 299 299 299 298 297 297 298 299 302 304 304 303 303 302 301 300
178 176 174 172 172 173 172 168 167 170 171 167 168 176 175 169 176 196 203 195 196 211 228 241 253 269 277 278 282 286 286 285 287 290 290 288 288 289 289 290 291 293 295 297 298 297 297 298 297 297 300 301 298 298 301 297 285 279 281 285 289 290 289 290 291 293 294 297 300 302 303 303 301 298 296 297 298 298 298 299 302 305 306 306 304
Height
1584 1586 1587 1589 1590 1592 1593 1595 1596 1598 1599 1600 1602 1603 1604 1605 1606 1607 1608 1608 1609 1609 1610 1610 1611 1611 1612 1613 1614 1614 1615 1615 1615 1616 1616 1617 1617 1618 1618 1618 1618 1619 1619 1619 1620 1620 1620 1620 1620 1620 1620 1620 1621 1621 1622 1622 1622 1622 1622 1622 1622 1622 1621 1620 1619 1618 1618 1618 1617 1616 1616 1614 1614 1613 1611 1610 1610 1608 1606 1605 1604 1603 1603 1602 1601
1583 1584 1586 1587 1589 1590 1592 1593 1595 1596 1598 1599 1600 1602 1603 1604 1605 1606 1607 1607 1608 1608 1609 1610 1610 1611 1612 1612 1613 1613 1614 1614 1615 1615 1615 1616 1616 1617 1617 1617 1617 1618 1618 1618 1618 1619 1619 1619 1619 1619 1619 1619 1619 1620 1621 1621 1621 1621 1621 1621 1621 1621 1620 1619 1618 1617 1616 1616 1615 1615 1614 1613 1612 1611 1610 1609 1608 1606 1605 1604 1604 1603 1603 1601 1600
1581 1583 1584 1586 1587 1589 1590 1592 1593 1595 1596 1598 1599 1601 1602 1602 1603 1604 1605 1606 1607 1607 1609 1609 1610 1610 1611 1612 1612 1612 1613 1613 1614 1614 1615 1615 1615 1616 1617 1617 1617 1617 1617 1617 1617 1618 1618 1618 1618 1618 1619 1619 1618 1619 1620 1620 1620 1620 1620 1619 1619 1619 1618 1617 1616 1616 1615 1614 1614 1614 1613 1612 1611 1610 1609 1608 1607 1605 1604 1604 1603 1602 1602 1600 1599
1579 1581 1583 1584 1586 1587 1589 1590 1592 1593 1595 1597 1598 1600 1601 1602 1602 1603 1604 1606 1606 1607 1607 1608 1609 1609 1610 1610 1610 1611 1611 1612 1613 1613 1614 1614 1614 1615 1616 1616 1616 1616 1616 1616 1617 1617 1617 1617 1617 1617 1618 1618 1617 1618 1618 1618 1618 1618 1618 1618 1617 1617 1617 1616 1615 1615 1614 1613 1612 1612 1611 1610 1609 1609 1608 1607 1606 1605 1604 1603 1602 1601 1600 1599 1598
1577 1579 1581 1582 1584 1585 1587 1589 1590 1592 1594 1595 1597 1598 1599 1600 1601 1602 1603 1605 1605 1606 1606 1607 1607 1608 1608 1609 1609 1610 1610 1611 1612 1612 1613 1613 1614 1614 1615 1615 1615 1615 1615 1615 1615 1616 1616 1616 1616 1616 1616 1616 1617 1617 1617 1617 1616 1616 1617 1616 1616 1616 1615 1615 1614 1613 1613 1612 1611 1611 1610 1609 1609 1608 1607 1606 1605 1604 1603 1602 1601 1600 1598 1597 1597
1575 1577 1579 1580 1582 1583 1585 1587 1589 1590 1592 1594 1595 1597 1598 1599 1600 1601 1602 1603 1604 1605 1605 1606 1606 1607 1607 1608 1609 1609 1610 1610 1611 1611 1612 1613 1613 1614 1614 1614 1614 1614 1614 1614 1615 1615 1615 1615 1615 1615 1615 1615 1615 1616 1615 1615 1615 1615 1615 1615 1614 1614 1614 1613 1613 1612 1611 1611 1610 1609 1609 1609 1608 1607 1606 1605 1604 1603 1602 1600 1599 1599 1597 1596 1595
1572 1574 1577 1578 1580 1581 1583 1584 1587 1589 1591 1592 1593 1595 1596 1598 1599 1600 1601 1602 1603 1604 1605 1605 1605 1606 1606 1607 1608 1609 1609 1609 1610 1610 1611 1612 1612 1613 1613 1613 1613 1613 1613 1614 1614 1614 1614 1614 1614 1614 1614 1614 1614 1614 1614 1614 1614 1614 1613 1613 1613 1612 1612 1612 1612 1611 1610 1610 1609 1609 1608 1608 1607 1606 1605 1604 1603 1601 1600 1599 1598 1597 1596 1594 1593
1570 1572 1574 1575 1577 1579 1581 1583 1584 1586 1588 1590 1591 1593 1594 1596 1597 1598 1600 1601 1602 1603 1604 1604 1605 1605 1606 1607 1608 1608 1608 1608 1609 1609 1610 1610 1611 1611 1612 1612 1612 1613 1613 1613 1613 1613 1613 1614 1614 1614 1613 1613 1613 1613 1613 1612 1612 1612 1612 1612 1611 1611 1611 1611 1610 1610 1609 1608 1608 1607 1607 1606 1605 1605 1604 1603 1602 1601 1600 1598 1597 1595 1594 1593 1592
1567 1569 1571 1572 1574 1576 1578 1580 1582 1584 1585 1587 1589 1590 1591 1593 1594 1596 1597 1599 1600 1601 1602 1604 1604 1605 1605 1606 1607 1607 1608 1608 1608 1608 1608 1609 1610 1611 1611 1611 1611 1612 1612 1612 1612 1612 1612 1613 1613 1613 1612 1611 1611 1611 1611 1611 1610 1610 1610 1610 1610 1609 1609 1609 1608 1608 1608 1607 1607 1606 1605 1605 1604 1604 1603 1602 1601 1600 1599 1598 1596 1594 1593 1591 1590
1565 1567 1568 1570 1572 1574 1576 1577 1579 1581 1583 1584 1586 1587 1589 1591 1592 1594 1595 1596 1598 1599 1600 1602 1603 1603 1604 1604 1605 1606 1607 1607 1607 1607 1607 1608 1608 1609 1609 1609 1610 1610 1610 1610 1611 1611 1611 1611 1611 1611 1610 1610 1610 1609 1609 1609 1608 1608 1608 1608 1608 1608 1607 1607 1607 1607 1606 1606 1605 1605 1604 1604 1603 1603 1602 1601 1600 1599 1598 1596 1595 1593 1591 1589 1588
1563 1564 1566 1568 1570 1571 1573 1574 1576 1578 1580 1582 1583 1585 1586 1588 1589 1591 1593 1594 1596 1597 1598 1599 1601 1602 1603 1603 1604 1605 1605 1605 1604 1605 1606 1606 1607 1607 1607 1608 1608 1608 1608 1609 1609 1609 1610 1610 1610 1609 1608 1608 1608 1608 1607 1607 1607 1607 1606 1606 1606 1605 1605 1605 1605 1605 1605 1604 1604 1604 1603 1602 1602 1601 1600 1600 1599 1598 1596 1595 1593 1591 1590 1588 1586
1560 1562 1563 1565 1567 1568 1570 1572 1573 1575 1577 1579 1581 1583 1584 1586 1587 1588 1590 1592 1593 1595 1596 1597 1598 1600 1601 1602 1603 1603 1602 1602 1602 1603 1604 1605 1605 1605 1606 1607 1607 1607 1607 1607 1608 1608 1608 1608 1608 1608 1608 1607 1607 1606 1606 1606 1606 1605 1605 1604 1604 1604 1603 1603 1603 1602 1602 1602 1601 1601 1601 1600 1600 1599 1599 1598 1596 1595 1593 1592 1591 1589 1588 1586 1584
1558 1559 1560 1562 1564 1565 1567 1569 1571 1572 1574 1576 1578 1580 1582 1583 1584 1586 1587 1589 1591 1592 1594 1595 1596 1597 1598 1599 1600 1599 1599 1599 1600 1601 1602 1603 1603 1604 1604 1605 1605 1606 1606 1606 1606 1606 1606 1606 1606 1606 1606 1605 1605 1605 1604 1604 1604 1604 1604 1603 1603 1602 1602 1601 1601 1601 1600 1600 1599 1598 1598 1598 1597 1596 1596 1595 1593 1592 1591 1589 1588 1587 1586 1584 1582
1556 1557 1558 1559 1561 1563 1565 1566 1568 1570 1571 1573 1575 1576 1578 1580 1581 1583 1584 1586 1588 1590 1591 1593 1594 1595 1596 1596 1596 1596 1596 1597 1598 1599 1600 1600 1601 1601 1602 1603 1604 1604 1604 1603 1604 1604 1604 1604 1604 1604 1604 1603 1603 1603 1603 1602 1602 1602 1602 1601 1601 1601 1600 1600 1599 1599 1598 1598 1597 1596 1596 1595 1594 1594 1593 1593 1591 1590 1588 1586 1585 1584 1582 1581 1579
1553 1554 1556 1558 1559 1560 1562 1564 1566 1567 1569 1570 1572 1573 1574 1577 1579 1581 1582 1582 1584 1586 1588 1590 1592 1593 1593 1594 1593 1593 1594 1595 1596 1597 1597 1598 1599 1599 1600 1601 1602 1602 1601 1601 1601 1601 1601 1601 1601 1601 1601 1601 1600 1600 1600 1600 1600 1600 1599 1599 1599 1598 1598 1598 1597 1597 1596 1595 1594 1594 1593 1593 1592 1591 1591 1590 1588 1587 1585 1584 1582 1580 1579 1577 1576
1550 1552 1554 1555 1556 1558 1560 1561 1563 1565 1567 1568 1569 1570 1572 1574 1576 1580 1580 1579 1579 1582 1585 1587 1589 1590 1591 1591 1591 1590 1591 1593 1593 1594 1595 1595 1596 1597 1597 1598 1599 1599 1598 1598 1598 1598 1598 1598 1598 1598 1598 1597 1597 1598 1598 1598 1597 1597 1597 1596 1596 1596 1596 1595 1595 1594 1594 1593 1592 1591 1591 1590 1590 1589 1588 1587 1586 1584 1582 1580 1579 1578 1576 1573 1572
1550 1551 1552 1553 1554 1556 1557 1559 1561 1563 1565 1566 1567 1569 1570 1571 1574 1577 1578 1576 1576 1579 1581 1584 1586 1587 1588 1588 1588 1588 1589 1590 1591 1591 1592 1593 1593 1594 1595 1595 1595 1596 1596 1596 1596 1596 1595 1594 1595 1595 1594 1593 1594 1595 1595 1595 1595 1594 1594 1593 1593 1593 1593 1593 1592 1591 1590 1589 1589 1588 1588 1587 1586 1585 1585 1584 1582 1581 1578 1576 1575 1575 1573 1571 1569
1550 1550 1550 1551 1552 1554 1555 1556 1559 1561 1562 1564 1565 1566 1568 1570 1572 1574 1574 1573 1574 1576 1579 1581 1583 1584 1584 1585 1586 1586 1587 1587 1588 1588 1589 1590 1591 1592 1592 1592 1593 1593 1593 1593 1593 1593 1592 1591 1592 1591 1591 1591 1591 1591 1592 1592 1592 1591 1591 1590 1590 1590 1590 1590 1589 1588 1587 1585 1585 1584 1583 1583 1582 1581 1580 1579 1578 1577 1574 1572 1572 1572 1570 1568 1567
1549 1550 1551 1551 1551 1553 1554 1555 1557 1559 1561 1562 1563 1565 1567 1569 1571 1572 1572 1571 1573 1575 1577 1579 1580 1581 1583 1584 1584 1584 1585 1585 1585 1586 1586 1587 1588 1589 1590 1590 1590 1591 1591 1591 1591 1590 1590 1589 1589 1588 1588 1588 1588 1588 1588 1588 1588 1588 1588 1587 1586 1586 1586 1586 1585 1585 1584 1583 1582 1581 1580 1579 1577 1576 1575 1574 1573 1572 1570 1569 1568 1568 1566 1565 1564
1550 1550 1551 1552 1552 1554 1555 1556 1557 1559 1561 1563 1564 1566 1568 1568 1569 1570 1571 1571 1572 1574 1576 1577 1578 1580 1582 1583 1583 1583 1583 1584 1584 1584 1584 1585 1585 1586 1587 1588 1588 1589 1589 1589 1589 1589 1588 1587 1586 1585 1585 1586 1585 1586 1586 1586 1585 1585 1585 1584 1583 1582 1582 1582 1582 1581 1580 1579 1579 1578 1576 1576 1575 1573 1572 1570 1569 1568 1567 1566 1565 1564 1563 1562 1561
1551 1552 1552 1553 1555 1556 1557 1558 1560 1561 1563 1565 1566 1567 1568 1568 1568 1569 1570 1571 1573 1574 1575 1576 1577 1579 1580 1581 1582 1582 1583 1583 1583 1583 1583 1583 1584 1584 1585 1586 1587 1587 1587 1588 1588 1588 1587 1586 1584 1583 1583 1583 1583 1583 1583 1583 1583 1583 1582 1581 1580 1579 1579 1579 1578 1577 1576 1576 1575 1574 1573 1573 1572 1571 1571 1569 1567 1566 1565 1565 1563 1562 1561 1560 1558
1553 1553 1553 1556 1558 1559 1559 1560 1562 1563 1565 1567 1567 1567 1568 1568 1569 1570 1571 1573 1573 1574 1575 1576 1577 1578 1579 1580 1581 1581 1582 1582 1582 1582 1582 1582 1583 1583 1584 1584 1585 1586 1586 1586 1586 1586 1585 1584 1582 1581 1582 1581 1581 1581 1581 1580 1580 1580 1579 1579 1578 1577 1576 1576 1575 1574 1573 1573 1572 1571 1570 1570 1569 1569 1568 1567 1565 1563 1562 1562 1560 1559 1558 1557 1555
1554 1554 1556 1559 1561 1561 1561 1562 1564 1565 1567 1569 1568 1568 1568 1569 1570 1571 1573 1574 1574 1575 1576 1577 1578 1578 1579 1580 1580 1581 1581 1582 1582 1582 1582 1582 1582 1583 1583 1583 1584 1584 1584 1584 1584 1584 1583 1582 1581 1580 1580 1580 1579 1579 1579 1578 1578 1577 1577 1577 1576 1575 1574 1574 1573 1572 1571 1570 1569 1569 1568 1567 1566 1565 1565 1564 1562 1561 1560 1559 1558 1556 1555 1554 1552
1556 1557 1559 1561 1563 1562 1562 1564 1566 1567 1568 1569 1570 1569 1569 1570 1572 1573 1574 1574 1574 1575 1577 1578 1579 1579 1580 1580 1581 1581 1582 1582 1581 1581 1581 1582 1583 1583 1583 1583 1583 1583 1583 1583 1583 1583 1582 1581 1580 1579 1579 1578 1578 1578 1577 1577 1576 1576 1575 1575 1574 1573 1572 1572 1571 1570 1569 1568 1567 1566 1565 1564 1563 1562 1562 1561 1560 1559 1558 1556 1555 1554 1552 1551 1549
1558 1559 1560 1562 1563 1563 1563 1565 1567 1568 1568 1569 1570 1571 1571 1571 1573 1574 1575 1575 1575 1576 1578 1579 1579 1579 1580 1580 1581 1582 1582 1582 1581 1581 1582 1582 1583 1583 1583 1583 1583 1583 1583 1583 1582 1581 1581 1580 1579 1578 1578 1577 1577 1577 1576 1576 1575 1575 1574 1573 1572 1571 1570 1570 1569 1568 1568 1567 1566 1565 1564 1563 1562 1561 1560 1559 1558 1557 1555 1554 1552 1551 1550 1548 1546
1559 1560 1562 1563 1564 1564 1565 1566 1568 1568 1568 1569 1570 1572 1572 1572 1573 1574 1576 1577 1577 1578 1579 1580 1579 1580 1580 1581 1581 1582 1582 1581 1581 1581 1581 1582 1582 1582 1582 1582 1582 1582 1582 1582 1581 1580 1580 1579 1578 1577 1577 1577 1576 1576 1576 1575 1574 1573 1573 1572 1571 1569 1568 1568 1567 1567 1566 1565 1564 1563 1562 1561 1561 1559 1558 1557 1556 1555 1553 1551 1550 1549 1548 1546 1544
1561 1561 1563 1564 1565 1566 1567 1567 1568 1569 1569 1570 1571 1572 1573 1573 1573 1574 1576 1577 1578 1579 1580 1580 1580 1581 1581 1581 1582 1582 1582 1581 1581 1581 1581 1581 1581 1581 1581 1581 1581 1581 1581 1580 1580 1579 1578 1577 1577 1576 1576 1576 1575 1575 1575 1574 1573 1572 1571 1571 1570 1568 1568 1567 1566 1565 1564 1563 1563 1562 1561 1560 1559 1558 1557 1555 1554 1553 1552 1550 1549 1547 1546 1544 1542
1562 1563 1564 1564 1566 1566 1567 1568 1569 1569 1570 1570 1571 1572 1572 1573 1573 1574 1575 1576 1577 1578 1579 1580 1580 1581 1581 1581 1582 1582 1581 1580 1580 1580 1580 1580 1580 1580 1580 1580 1579 1579 1579 1578 1578 1577 1576 1576 1575 1575 1575 1575 1574 1574 1573 1572 1571 1571 1570 1569 1569 1567 1567 1566 1565 1564 1563 1562 1561 1561 1560 1559 1558 1556 1555 1554 1553 1552 1551 1550 1548 1546 1545 1543 1541
1563 1564 1565 1565 1566 1567 1567 1569 1569 1569 1570 1570 1571 1572 1572 1573 1573 1574 1574 1575 1576 1577 1577 1578 1578 1579 1579 1580 1580 1581 1580 1579 1579 1579 1579 1579 1579 1579 1578 1578 1578 1577 1577 1576 1575 1575 1575 1574 1574 1574 1574 1574 1573 1572 1571 1570 1570 1569 1568 1568 1567 1566 1565 1564 1563 1562 1562 1561 1560 1559 1558 1557 1556 1555 1554 1553 1551 1550 1549 1548 1546 1545 1543 1542 1540
1563 1564 1565 1565 1566 1567 1568 1569 1570 1570 1570 1570 1571 1571 1572 1573 1573 1573 1574 1575 1575 1575 1576 1576 1576 1576 1577 1577 1578 1578 1578 1578 1578 1578 1578 1578 1578 1577 1577 1577 1576 1576 1575 1574 1574 1573 1573 1573 1573 1572 1572 1571 1571 1570 1569 1569 1568 1568 1567 1566 1566 1565 1564 1563 1562 1561 1560 1559 1558 1557 1556 1555 1554 1553 1552 1551 1550 1549 1547 1546 1545 1543 1542 1540 1539
1564 1564 1565 1565 1566 1567 1568 1569 1569 1570 1571 1571 1571 1571 1572 1572 1573 1573 1574 1574 1575 1575 1575 1575 1575 1576 1576 1576 1576 1577 1577 1577 1577 1577 1577 1577 1577 1576 1576 1576 1575 1574 1574 1573 1572 1572 1572 1572 1571 1571 1570 1570 1569 1568 1568 1567 1566 1566 1566 1565 1564 1563 1562 1561 1560 1559 1558 1558 1557 1556 1555 1554 1552 1551 1550 1548 1547 1546 1545 1544 1543 1542 1540 1539 1537
1564 1564 1564 1565 1565 1566 1567 1568 1569 1570 1571 1571 1572 1572 1572 1572 1572 1573 1573 1574 1574 1574 1574 1574 1575 1575 1575 1575 1575 1576 1576 1576 1576 1576 1576 1576 1576 1575 1575 1574 1574 1573 1573 1572 1571 1571 1571 1571 1570 1569 1569 1568 1567 1567 1566 1566 1565 1564 1564 1563 1562 1561 1560 1559 1558 1558 1557 1556 1555 1554 1553 1552 1551 1549 1547 1546 1545 1544 1543 1542 1541 1539 1538 1536 1535
1564 1564 1564 1565 1566 1567 1567 1568 1569 1570 1570 1571 1572 1573 1573 1573 1573 1572 1572 1572 1573 1573 1573 1573 1574 1574 1574 1574 1574 1574 1574 1575 1575 1575 1575 1574 1574 1574 1573 1573 1572 1571 1571 1570 1570 1570 1570 1570 1569 1568 1568 1567 1566 1566 1565 1564 1564 1563 1562 1561 1561 1559 1558 1557 1556 1555 1555 1554 1553 1552 1551 1550 1549 1547 1546 1544 1543 1542 1541 1539 1538 1537 1535 1533 1532
1563 1563 1564 1565 1565 1566 1566 1567 1568 1569 1570 1571 1571 1572 1573 1573 1573 1573 1573 1573 1573 1572 1572 1572 1572 1573 1573 1573 1573 1573 1573 1573 1573 1573 1573 1573 1572 1572 1572 1571 1570 1570 1569 1569 1569 1569 1569 1568 1568 1567 1567 1566 1565 1565 1564 1563 1562 1561 1560 1560 1559 1557 1556 1556 1555 1554 1553 1552 1551 1550 1548 1547 1546 1545 1544 1543 1541 1540 1538 1537 1536 1534 1533 1531 1529
1561 1562 1563 1564 1565 1566 1566 1567 1567 1568 1569 1570 1570 1571 1572 1572 1572 1573 1573 1573 1574 1573 1572 1571 1571 1571 1571 1571 1571 1572 1572 1572 1572 1571 1571 1571 1571 1570 1570 1571 1571 1570 1570 1569 1569 1568 1568 1567 1567 1566 1565 1564 1564 1563 1562 1561 1560 1560 1559 1558 1557 1556 1555 1554 1553 1552 1551 1550 1549 1548 1547 1546 1545 1544 1542 1541 1540 1538 1537 1535 1534 1532 1530 1528 1527
1561 1562 1563 1564 1565 1565 1565 1565 1566 1567 1568 1568 1569 1570 1570 1570 1571 1572 1572 1573 1573 1573 1573 1572 1570 1570 1570 1569 1569 1570 1570 1570 1570 1570 1570 1570 1569 1569 1570 1571 1571 1571 1570 1569 1568 1567 1566 1566 1565 1564 1564 1563 1562 1561 1561 1560 1559 1558 1557 1556 1555 1554 1553 1552 1551 1550 1549 1548 1547 1546 1545 1544 1543 1542 1541 1540 1538 1537 1536 1534 1532 1530 1528 1526 1524
1560 1561 1562 1562 1563 1563 1563 1564 1564 1565 1566 1567 1568 1568 1569 1570 1570 1571 1572 1572 1572 1572 1573 1572 1571 1571 1571 1569 1568 1568 1569 1569 1569 1569 1568 1568 1568 1568 1569 1570 1569 1569 1569 1568 1567 1566 1565 1565 1564 1563 1563 1562 1561 1560 1559 1558 1557 1556 1555 1554 1553 1552 1551 1550 1549 1548 1547 1546 1546 1545 1544 1543 1542 1540 1539 1538 1537 1536 1534 1532 1530 1528 1527 1525 1523
1558 1559 1559 1560 1560 1561 1562 1562 1562 1562 1564 1565 1566 1567 1568 1569 1569 1570 1570 1571 1571 1571 1572 1571 1571 1572 1572 1570 1569 1568 1568 1568 1568 1568 1567 1567 1567 1568 1568 1568 1568 1568 1568 1567 1565 1564 1564 1563 1563 1562 1562 1561 1560 1559 1558 1557 1556 1555 1554 1552 1552 1551 1550 1549 1548 1547 1546 1546 1545 1543 1542 1541 1540 1539 1538 1536 1535 1534 1532 1530 1528 1526 1524 1523 1522
1556 1556 1556 1557 1558 1559 1560 1561 1561 1562 1563 1565 1565 1566 1566 1567 1568 1568 1569 1569 1569 1570 1570 1570 1570 1570 1569 1568 1567 1567 1567 1569 1569 1569 1568 1568 1568 1567 1567 1567 1567 1567 1566 1566 1564 1563 1563 1562 1562 1561 1560 1559 1558 1557 1556 1555 1555 1554 1552 1552 1551 1550 1549 1548 1547 1547 1546 1545 1544 1542 1540 1539 1538 1537 1536 1534 1533 1531 1530 1528 1526 1524 1522 1521 1519
1555 1555 1555 1556 1557 1559 1559 1560 1560 1561 1563 1564 1564 1565 1565 1566 1566 1566 1567 1568 1568 1568 1568 1569 1569 1568 1566 1565 1564 1564 1566 1568 1569 1568 1568 1567 1567 1566 1566 1566 1566 1565 1565 1564 1563 1562 1561 1561 1560 1559 1558 1557 1556 1556 1555 1554 1553 1552 1552 1551 1550 1549 1549 1547 1546 1546 1546 1544 1542 1540 1538 1537 1536 1535 1533 1532 1530 1529 1527 1525 1523 1522 1521 1519 1517
1555 1554 1553 1554 1556 1557 1557 1558 1559 1560 1561 1562 1563 1564 1564 1564 1564 1565 1566 1566 1566 1567 1567 1567 1567 1565 1563 1562 1563 1563 1564 1565 1567 1567 1566 1566 1565 1565 1564 1564 1564 1563 1563 1562 1561 1560 1559 1558 1558 1557 1556 1555 1555 1554 1553 1552 1552 1551 1551 1550 1549 1548 1547 1546 1545 1545 1544 1543 1541 1538 1536 1535 1533 1531 1530 1529 1527 1526 1524 1523 1521 1520 1518 1517 1515
1554 1553 1553 1553 1554 1555 1556 1557 1558 1559 1560 1561 1562 1562 1563 1563 1563 1564 1564 1565 1565 1565 1565 1565 1565 1564 1561 1561 1561 1561 1561 1563 1564 1565 1564 1564 1563 1563 1562 1562 1562 1561 1561 1560 1559 1558 1558 1556 1555 1555 1554 1554 1553 1553 1552 1551 1550 1550 1549 1548 1547 1546 1545 1544 1543 1543 1542 1541 1539 1537 1534 1532 1530 1528 1527 1526 1524 1523 1522 1520 1519 1518 1516 1514 1513
1553 1553 1553 1553 1554 1555 1556 1556 1557 1558 1558 1559 1560 1560 1561 1561 1562 1562 1563 1563 1564 1564 1564 1564 1564 1563 1561 1560 1559 1560 1560 1562 1563 1563 1562 1562 1562 1562 1561 1561 1560 1560 1559 1557 1557 1556 1556 1555 1554 1553 1553 1552 1552 1551 1550 1549 1548 1547 1547 1546 1545 1543 1542 1541 1541 1540 1539 1538 1536 1533 1531 1529 1528 1526 1525 1523 1522 1520 1519 1517 1516 1514 1513 1511 1510
1551 1552 1552 1553 1553 1554 1555 1555 1556 1557 1557 1557 1558 1558 1558 1559 1560 1561 1562 1562 1562 1562 1563 1563 1563 1562 1561 1560 1559 1559 1560 1561 1561 1561 1560 1560 1560 1560 1559 1559 1558 1557 1557 1556 1555 1554 1553 1553 1552 1551 1550 1550 1549 1548 1548 1547 1546 1545 1544 1544 1542 1541 1540 1539 1538 1537 1535 1533 1531 1529 1527 1526 1525 1524 1523 1521 1519 1517 1516 1514 1513 1511 1510 1508 1506
1551 1551 1552 1552 1553 1553 1554 1554 1555 1555 1555 1556 1557 1557 1557 1558 1559 1560 1561 1561 1561 1561 1561 1561 1561 1560 1560 1560 1559 1559 1559 1559 1559 1559 1558 1558 1558 1558 1557 1556 1555 1554 1554 1554 1553 1552 1551 1550 1549 1548 1547 1547 1546 1546 1545 1544 1544 1543 1542 1541 1540 1539 1538 1536 1534 1532 1530 1528 1526 1525 1524 1523 1522 1521 1520 1518 1517 1514 1513 1511 1510 1508 1506 1505 1503
1551 1551 1552 1552 1552 1553 1553 1553 1553 1554 1555 1556 1557 1557 1557 1558 1558 1558 1559 1559 1559 1559 1559 1559 1559 1558 1558 1558 1558 1557 1557 1557 1557 1556 1556 1555 1554 1554 1554 1553 1552 1551 1551 1551 1550 1549 1548 1547 1546 1545 1544 1543 1543 1542 1542 1541 1540 1540 1539 1538 1537 1536 1533 1531 1529 1528 1527 1525 1524 1522 1521 1520 1518 1518 1516 1515 1514 1512 1510 1508 1507 1505 1504 1502 1500
1550 1550 1551 1551 1551 1552 1552 1552 1552 1553 1554 1555 1556 1556 1557 1557 1557 1557 1557 1557 1557 1557 1557 1557 1557 1557 1557 1557 1556 1556 1555 1555 1554 1554 1553 1552 1552 1551 1550 1549 1549 1549 1548 1548 1547 1546 1545 1544 1543 1542 1541 1540 1539 1538 1538 1537 1537 1536 1536 1536 1533 1530 1528 1527 1526 1525 1524 1523 1521 1519 1518 1517 1516 1515 1513 1512 1511 1509 1507 1506 1504 1502 1501 1499 1497
1549 1550 1550 1550 1551 1551 1551 1551 1552 1553 1553 1554 1554 1555 1555 1555 1555 1555 1555 1555 1555 1555 1556 1556 1556 1556 1555 1555 1554 1554 1553 1553 1552 1551 1551 1550 1549 1549 1547 1546 1546 1546 1545 1544 1543 1543 1542 1541 1540 1539 1538 1537 1536 1535 1534 1533 1533 1533 1533 1532 1529 1526 1525 1525 1524 1522 1521 1520 1518 1517 1515 1514 1513 1512 1510 1509 1508 1506 1504 1503 1501 1500 1499 1497 1495
1548 1549 1549 1549 1550 1550 1551 1551 1552 1552 1553 1553 1553 1554 1554 1554 1554 1554 1554 1554 1554 1555 1555 1555 1554 1554 1553 1553 1552 1552 1551 1551 1550 1549 1549 1548 1547 1547 1546 1544 1544 1543 1542 1541 1541 1540 1539 1538 1537 1536 1535 1534 1533 1531 1530 1530 1529 1529 1529 1527 1525 1523 1523 1523 1521 1520 1518 1517 1515 1514 1513 1511 1510 1509 1508 1506 1505 1503 1502 1500 1499 1498 1496 1494 1492
1547 1548 1548 1548 1549 1549 1550 1550 1551 1551 1552 1552 1552 1553 1553 1553 1553 1553 1553 1553 1553 1553 1553 1553 1552 1552 1552 1551 1551 1550 1550 1549 1548 1547 1546 1546 1545 1544 1543 1542 1541 1541 1540 1539 1539 1538 1537 1536 1535 1534 1533 1531 1530 1529 1528 1528 1527 1526 1525 1523 1522 1521 1521 1520 1518 1517 1516 1514 1512 1512 1511 1509 1508 1506 1505 1504 1503 1501 1499 1498 1496 1495 1493 1491 1489
1546 1546 1547 1547 1548 1548 1549 1549 1550 1550 1550 1551 1551 1552 1552 1552 1553 1552 1552 1552 1552 1552 1552 1551 1551 1551 1550 1550 1549 1548 1547 1547 1546 1546 1545 1544 1544 1543 1542 1540 1540 1539 1538 1537 1536 1535 1535 1534 1533 1532 1531 1530 1529 1528 1527 1526 1525 1523 1522 1521 1520 1519 1518 1517 1516 1515 1513 1511 1510 1509 1508 1506 1505 1504 1503 1502 1501 1499 1497 1495 1493 1491 1489 1488 1486